Voltar ao catálogo

FENGYUN 1C DEB

AtivoSSO
NORAD 37600·DEBRIS·🇨🇳 China

Lançado May 10, 1999 de Taiyuan Satellite Launch Center

Loading…

Próximas Passagens (próximas 24 horas)

TLE

AtualizadoSource: Space-Track

Época: Sep 11, 2026, 04:45 UTC

1 37600U 99025EKU 26254.19822888  .00001817  00000-0  10099-2 0  9994
2 37600  98.9280  43.2423 0348165  32.8948 329.3363 13.85680195922573

Acompanhe FENGYUN 1C DEB em tempo real com AllMySat

Download on the App Store